{"data":{"norad_id":64364,"epoch":"2026-09-20T22:55:07.654080Z","epoch_age_seconds":95133,"freshness":"FRESH","line1":"1 64364U 25126W   26263.95494970  .00012706  00000+0  44563-3 0  9995","line2":"2 64364  70.0013 259.6127 0002829 275.3296  84.7556 15.29586413 69995","mean_motion":15.29586413,"eccentricity":0.0002829,"inclination_deg":70.0013,"raan_deg":259.6127,"arg_perigee_deg":275.3296,"mean_anomaly_deg":84.7556,"bstar":0.00044563,"rev_number":6999,"period_min":94.143095660461,"perigee_km":475.1084102466,"apogee_km":478.98707377363,"semimajor_km":6855.1847420101,"source":"CELESTRAK","updated_at":"2026-09-21T09:00:35.320105Z"}}